H1 CPF 2 NER 2025 12 13 9 347 01 glonass131 H2 1301901 9131 39155 2025 12 13 0 0 0 2025 12 16 23 45 0 900 1 1 0 0 0 1 H9 10 0 61022 0.00000 0 10819771.052 -9959116.676 -20818219.530 10 0 61022 900.00000 0 13286864.093 -10225152.646 -19208271.071 10 0 61022 1800.00000 0 15507352.233 -10644132.963 -17224730.170 10 0 61022 2700.00000 0 17430467.244 -11174134.564 -14906474.438 10 0 61022 3600.00000 0 19016034.609 -11765592.627 -12298812.533 10 0 61022 4500.00000 0 20235917.800 -12363540.045 -9452583.407 10 0 61022 5400.00000 0 21074966.533 -12910081.623 -6423154.662 10 0 61022 6300.00000 0 21531432.952 -13346997.743 -3269340.433 10 0 61022 7200.00000 0 21616841.918 -13618367.613 -52260.366 10 0 61022 8100.00000 0 21355324.274 -13673102.172 3165838.182 10 0 61022 9000.00000 0 20782443.812 -13467281.218 6322772.365 10 0 61022 9900.00000 0 19943569.283 -12966198.076 9357608.427 10 0 61022 10800.00000 0 18891860.799 -12146027.608 12211817.130 10 0 61022 11700.00000 0 17685955.243 -10995049.217 14830379.597 10 0 61022 12600.00000 0 16387446.803 -9514374.661 17162824.219 10 0 61022 13500.00000 0 15058266.662 -7718150.774 19164176.906 10 0 61022 14400.00000 0 13758069.457 -5633228.466 20795808.649 10 0 61022 15300.00000 0 12541733.278 -3298310.455 22026165.968 10 0 61022 16200.00000 0 11457075.358 -762611.108 22831371.814 10 0 61022 17100.00000 0 10542876.841 1915918.736 23195686.417 10 0 61022 18000.00000 0 9827297.684 4672731.732 23111819.582 10 0 61022 18900.00000 0 9326747.278 7439103.651 22581088.087 10 0 61022 19800.00000 0 9045258.218 10144735.965 21613414.019 10 0 61022 20700.00000 0 8974390.579 12720436.632 20227162.283 10 0 61022 21600.00000 0 9093672.546 15100770.355 18448818.049 10 0 61022 22500.00000 0 9371561.369 17226569.840 16312507.576 10 0 61022 23400.00000 0 9766886.900 19047204.126 13859368.818 10 0 61022 24300.00000 0 10230719.489 20522508.970 11136781.152 10 0 61022 25200.00000 0 10708585.582 21624297.333 8197466.739 10 0 61022 26100.00000 0 11142938.745 22337384.614 5098479.124 10 0 61022 27000.00000 0 11475781.968 22660083.226 1900097.633 10 0 61022 27900.00000 0 11651329.470 22604143.215 -1335351.142 10 0 61022 28800.00000 0 11618593.403 22194139.256 -4544721.148 10 0 61022 29700.00000 0 11333783.122 21466328.340 -7665298.571 10 0 61022 30600.00000 0 10762411.956 20467025.642 -10636050.927 10 0 61022 31500.00000 0 9881018.617 19250567.425 -13398846.584 10 0 61022 32400.00000 0 8678426.772 17876948.197 -15899618.150 10 0 61022 33300.00000 0 7156486.391 16409233.880 -18089444.380 10 0 61022 34200.00000 0 5330263.129 14910862.672 -19925527.028 10 0 61022 35100.00000 0 3227666.179 13442950.171 -21372041.724 10 0 61022 36000.00000 0 888529.650 12061714.848 -22400845.012 10 0 61022 36900.00000 0 -1636813.675 10816134.365 -22992023.192 10 0 61022 37800.00000 0 -4289405.365 9745932.598 -23134272.411 10 0 61022 38700.00000 0 -7003901.294 8879982.326 -22825103.398 10 0 61022 39600.00000 0 -9711083.162 8235189.973 -22070868.195 10 0 61022 40500.00000 0 -12340535.128 7815907.593 -20886610.103 10 0 61022 41400.00000 0 -14823372.739 7613894.209 -19295741.790 10 0 61022 42300.00000 0 -17094909.760 7608825.022 -17329559.973 10 0 61022 43200.00000 0 -19097151.933 7769323.649 -15026608.240 10 0 61022 44100.00000 0 -20781014.791 8054470.531 -12431902.366 10 0 61022 45000.00000 0 -22108174.855 8415720.954 -9596034.961 10 0 61022 45900.00000 0 -23052479.562 8799149.373 -6574178.248 10 0 61022 46800.00000 0 -23600860.152 9147923.753 -3425005.326 10 0 61022 47700.00000 0 -23753712.682 9404904.741 -209551.433 10 0 61022 48600.00000 0 -23524734.513 9515260.088 3009962.616 10 0 61022 49500.00000 0 -22940226.151 9428984.906 6171322.555 10 0 61022 50400.00000 0 -22037889.993 9103222.956 9213506.170 10 0 61022 51300.00000 0 -20865177.820 8504292.914 12077840.653 10 0 61022 52200.00000 0 -19477256.772 7609336.174 14709111.326 10 0 61022 53100.00000 0 -17934678.555 6407518.384 17056602.284 10 0 61022 54000.00000 0 -16300848.167 4900735.326 19075051.248 10 0 61022 54900.00000 0 -14639395.917 3103793.733 20725502.384 10 0 61022 55800.00000 0 -13011560.117 1044058.737 21976042.698 10 0 61022 56700.00000 0 -11473687.056 -1239418.987 22802409.453 10 0 61022 57600.00000 0 -10074950.044 -3697262.704 23188457.996 10 0 61022 58500.00000 0 -8855380.682 -6271562.392 23126481.435 10 0 61022 59400.00000 0 -7844293.133 -8898030.003 22617375.673 10 0 61022 60300.00000 0 -7059166.606 -11508431.532 21670645.577 10 0 61022 61200.00000 0 -6505033.125 -14033198.441 20304250.336 10 0 61022 62100.00000 0 -6174397.381 -16404112.921 18544288.702 10 0 61022 63000.00000 0 -6047693.872 -18556957.527 16424527.360 10 0 61022 63900.00000 0 -6094264.443 -20434019.943 13985778.729 10 0 61022 64800.00000 0 -6273817.491 -21986348.470 11275137.342 10 0 61022 65700.00000 0 -6538309.511 -23175662.995 8345087.190 10 0 61022 66600.00000 0 -6834171.121 -23975839.526 5252495.449 10 0 61022 67500.00000 0 -7104784.220 -24373903.568 2057511.039 10 0 61022 68400.00000 0 -7293105.133 -24370487.841 -1177610.879 10 0 61022 69300.00000 0 -7344321.283 -23979732.446 -4389734.883 10 0 61022 70200.00000 0 -7208426.467 -23228629.548 -7516096.472 10 0 61022 71100.00000 0 -6842602.484 -22155838.780 -10495551.958 10 0 61022 72000.00000 0 -6213302.635 -20810022.883 -13269800.079 10 0 61022 72900.00000 0 -5297945.207 -19247774.325 -15784548.778 10 0 61022 73800.00000 0 -4086141.855 -17531221.765 -17990601.666 10 0 61022 74700.00000 0 -2580406.155 -15725419.369 -19844840.524 10 0 61022 75600.00000 0 -796310.333 -13895631.502 -21311082.778 10 0 61022 76500.00000 0 1237917.552 -12104629.574 -22360795.927 10 0 61022 77400.00000 0 3482339.249 -10410116.989 -22973654.387 10 0 61022 78300.00000 0 5886754.494 -8862391.962 -23137928.026 10 0 61022 79200.00000 0 8392589.770 -7502347.032 -22850695.563 10 0 61022 80100.00000 0 10935146.976 -6359888.917 -22117880.002 10 0 61022 81000.00000 0 13446116.283 -5452843.639 -20954107.130 10 0 61022 81900.00000 0 15856246.754 -4786390.525 -19382391.832 10 0 61022 82800.00000 0 18098062.135 -4353045.780 -17433660.476 10 0 61022 83700.00000 0 20108508.145 -4133192.723 -15146120.773 10 0 61022 84600.00000 0 21831421.164 -4096132.673 -12564493.382 10 0 61022 85500.00000 0 23219716.480 -4201608.700 -9739121.958 10 0 61023 0.00000 0 24237206.624 -4401734.934 -6724980.652 10 0 61023 900.00000 0 24859976.883 -4643247.829 -3580597.725 10 0 61023 1800.00000 0 25077262.144 -4869982.658 -366920.846 10 0 61023 2700.00000 0 24891793.376 -5025470.473 2853859.231 10 0 61023 3600.00000 0 24319600.720 -5055546.051 6019500.289 10 0 61023 4500.00000 0 23389284.453 -4910857.892 9068894.921 10 0 61023 5400.00000 0 22140786.172 -4549176.073 11943229.760 10 0 61023 6300.00000 0 20623712.338 -3937402.508 14587096.982 10 0 61023 7200.00000 0 18895280.256 -3053200.738 16949538.677 10 0 61023 8100.00000 0 17017971.486 -1886178.166 18985006.231 10 0 61023 9000.00000 0 15056988.799 -438571.812 20654218.458 10 0 61023 9900.00000 0 13077620.446 1274591.261 21924903.938 10 0 61023 10800.00000 0 11142618.819 3225866.737 22772414.940 10 0 61023 11700.00000 0 9309699.974 5376285.590 23180202.233 10 0 61023 12600.00000 0 7629265.684 7676732.077 23140142.127 10 0 61023 13500.00000 0 6142440.931 10069753.363 22652709.145 10 0 61023 14400.00000 0 4879507.396 12491729.323 21726990.000 10 0 61023 15300.00000 0 3858797.952 14875316.034 20380536.842 10 0 61023 16200.00000 0 3086098.807 17152064.667 18639060.284 10 0 61023 17100.00000 0 2554585.617 19255109.442 16535965.389 10 0 61023 18000.00000 0 2245298.070 21121814.224 14111736.680 10 0 61023 18900.00000 0 2128135.199 22696267.904 11413181.247 10 0 61023 19800.00000 0 2163331.618 23931523.662 8492542.103 10 0 61023 20700.00000 0 2303354.203 24791486.715 5406497.106 10 0 61023 21600.00000 0 2495140.174 25252368.967 2215061.717 10 0 61023 22500.00000 0 2682582.065 25303646.580 -1019583.396 10 0 61023 23400.00000 0 2809153.514 24948477.180 -4234316.452 10 0 61023 24300.00000 0 2820562.752 24203556.450 -7366325.124 10 0 61023 25200.00000 0 2667318.601 23098418.025 -10354357.142 10 0 61023 26100.00000 0 2307096.882 21674205.045 -13139943.956 10 0 61023 27000.00000 0 1706803.394 19981964.843 -15668570.845 10 0 61023 27900.00000 0 844242.571 18080539.427 -17890767.936 10 0 61023 28800.00000 0 -290681.872 16034142.160 -19763098.366 10 0 61023 29700.00000 0 -1695287.460 13909724.810 -21249022.377 10 0 61023 30600.00000 0 -3353984.917 11774248.041 -22319619.148 10 0 61023 31500.00000 0 -5238707.596 9691972.360 -22954151.649 10 0 61023 32400.00000 0 -7309880.104 7721885.018 -23140463.595 10 0 61023 33300.00000 0 -9517884.511 5915371.864 -22875201.487 10 0 61023 34200.00000 0 -11804961.152 4314231.851 -22163858.712 10 0 61023 35100.00000 0 -14107462.668 2949116.480 -21020642.565 10 0 61023 36000.00000 0 -16358365.298 1838457.573 -19468168.766 10 0 61023 36900.00000 0 -18489930.949 987925.487 -17536991.582 10 0 61023 37800.00000 0 -20436407.913 390436.969 -15264980.799 10 0 61023 38700.00000 0 -22136657.163 26708.410 -12696559.681 10 0 61023 39600.00000 0 -23536595.030 -133672.645 -9881820.511 10 0 61023 40500.00000 0 -24591351.482 -130706.460 -6875536.341 10 0 61023 41400.00000 0 -25267055.774 -12038.464 -3736089.202 10 0 61023 42300.00000 0 -25542177.294 169300.878 -524336.195 10 0 61023 43200.00000 0 -25408368.260 357377.078 2697564.437 10 0 61023 44100.00000 0 -24870775.767 495948.489 5867344.916 10 0 61023 45000.00000 0 -23947812.733 531070.049 8923815.037 10 0 61023 45900.00000 0 -22670399.169 413595.339 11808023.207 10 0 61023 46800.00000 0 -21080706.596 101473.215 14464370.696 10 0 61023 47700.00000 0 -19230458.541 -438255.820 16841659.713 10 0 61023 48600.00000 0 -17178857.229 -1227845.786 18894057.260 10 0 61023 49500.00000 0 -14990221.514 -2277680.555 20581958.477 10 0 61023 50400.00000 0 -12731432.314 -3585606.631 21872734.878 10 0 61023 51300.00000 0 -10469289.027 -5136791.864 22741354.748 10 0 61023 52200.00000 0 -8267884.012 -6904117.442 23170864.914 10 0 61023 53100.00000 0 -6186101.505 -8849089.184 23152725.144 10 0 61023 54000.00000 0 -4275342.523 -10923233.266 22686988.466 10 0 61023 54900.00000 0 -2577568.567 -13069921.924 21782322.985 10 0 61023 55800.00000 0 -1123744.631 -15226556.804 20455873.012 10 0 61023 56700.00000 0 67253.746 -17327022.664 18732959.912 10 0 61023 57600.00000 0 989223.017 -19304312.141 16646625.695 10 0 61023 58500.00000 0 1648677.954 -21093214.237 14237025.274 10 0 61023 59400.00000 0 2064357.956 -22632955.318 11550676.297 10 0 61023 60300.00000 0 2266212.058 -23869682.049 8639578.565 10 0 61023 61200.00000 0 2293903.510 -24758681.009 5560218.195 10 0 61023 62100.00000 0 2194895.645 -25266239.670 2372474.620 10 0 61023 63000.00000 0 2022199.359 -25371067.650 -861548.643 10 0 61023 63900.00000 0 1831877.843 -25065215.240 -4078746.158 10 0 61023 64800.00000 0 1680415.596 -24354447.384 -7216260.502 10 0 61023 65700.00000 0 1622065.509 -23258054.629 -10212733.548 10 0 61023 66600.00000 0 1706289.420 -21808107.056 -13009532.141 10 0 61023 67500.00000 0 1975404.037 -20048181.611 -15551921.485 10 0 61023 68400.00000 0 2462535.473 -18031616.422 -17790160.659 10 0 61023 69300.00000 0 3189972.188 -15819366.531 -19680496.352 10 0 61023 70200.00000 0 4167988.714 -13477552.910 -21186033.492 10 0 61023 71100.00000 0 5394191.749 -11074809.848 -22277464.420 10 0 61023 72000.00000 0 6853417.233 -8679544.324 -22933641.706 10 0 61023 72900.00000 0 8518182.861 -6357224.233 -23141983.498 10 0 61023 73800.00000 0 10349676.299 -4167810.496 -22898704.221 10 0 61023 74700.00000 0 12299236.247 -2163441.111 -22208867.366 10 0 61023 75600.00000 0 14310262.434 -386463.681 -21086261.073 10 0 61023 76500.00000 0 16320472.648 1132102.811 -19553100.885 10 0 61023 77400.00000 0 18264410.443 2373614.954 -17639567.602 10 0 61023 78300.00000 0 20076097.192 3332320.091 -15383191.384 10 0 61023 79200.00000 0 21691716.733 4015321.941 -12828096.048 10 0 61023 80100.00000 0 23052220.124 4442002.165 -10024120.106 10 0 61023 81000.00000 0 24105742.211 4642926.178 -7025833.070 10 0 61023 81900.00000 0 24809730.271 4658282.792 -3891467.211 10 0 61023 82800.00000 0 25132697.595 4535926.247 -681786.153 10 0 61023 83700.00000 0 25055530.999 4329105.127 2541087.622 10 0 61023 84600.00000 0 24572300.053 4093974.923 5714864.011 10 0 61023 85500.00000 0 23690536.609 3886999.152 8778273.114 10 0 61024 0.00000 0 22430975.040 3762347.799 11672227.713 10 0 61024 900.00000 0 20826764.694 3769401.150 14340941.320 10 0 61024 1800.00000 0 18922189.665 3950462.472 16732978.286 10 0 61024 2700.00000 0 16770946.716 4338773.617 18802223.173 10 0 61024 3600.00000 0 14434053.587 4956915.502 20508749.090 10 0 61024 4500.00000 0 11977471.983 5815659.448 21819571.784 10 0 61024 5400.00000 0 9469541.578 6913317.287 22709276.511 10 0 61024 6300.00000 0 6978328.618 8235618.139 23160506.756 10 0 61024 7200.00000 0 4568996.166 9756118.732 23164305.950 10 0 61024 8100.00000 0 2301302.364 11437132.678 22720305.417 10 0 61024 9000.00000 0 227328.304 13231143.213 21836753.991 10 0 61024 9900.00000 0 -1610471.574 15082644.064 20530387.020 10 0 61024 10800.00000 0 -3180816.177 16930335.302 18826135.053 10 0 61024 11700.00000 0 -4464676.888 18709585.814 16756675.064 10 0 61024 12600.00000 0 -5455843.077 20355062.099 14361830.012 10 0 61024 13500.00000 0 -6160948.743 21803415.072 11687825.477 10 0 61024 14400.00000 0 -6598957.272 22995912.807 8786415.201 10 0 61024 15300.00000 0 -6800123.985 23880908.077 5713890.544 10 0 61024 16200.00000 0 -6804478.620 24416035.241 2529991.820 10 0 61024 17100.00000 0 -6659890.749 24570041.395 -703257.737 10 0 61024 18000.00000 0 -6419799.784 24324171.418 -3922772.136 10 0 61024 18900.00000 0 -6140706.440 23673045.173 -7065651.841 10 0 61024 19800.00000 0 -5879533.659 22624986.638 -10070435.663 10 0 61024 20700.00000 0 -5690971.401 21201788.477 -12878328.376 10 0 61024 21600.00000 0 -5624920.929 19437920.194 -15434377.342 10 0 61024 22500.00000 0 -5724150.269 17379212.385 -17688572.468 10 0 61024 23400.00000 0 -6022263.364 15081072.686 -19596845.528 10 0 61024 24300.00000 0 -6542071.733 12606309.497 -21121947.323 10 0 61024 25200.00000 0 -7294439.627 10022656.581 -22234184.204 10 0 61024 26100.00000 0 -8277652.757 7400104.465 -22911998.853 10 0 61024 27000.00000 0 -9477337.622 4808152.464 -23142384.024 10 0 61024 27900.00000 0 -10866934.368 2313098.001 -22921121.863 10 0 61024 28800.00000 0 -12408702.035 -24522.365 -22252845.376 10 0 61024 29700.00000 0 -14055212.195 -2152233.181 -21150922.535 10 0 61024 30600.00000 0 -15751266.226 -4027566.360 -19637167.280 10 0 61024 31500.00000 0 -17436153.703 -5619574.043 -17741385.142 10 0 61024 32400.00000 0 -19046155.400 -6909847.645 -15500764.505 10 0 61024 33300.00000 0 -20517184.670 -7893004.013 -12959127.342 10 0 61024 34200.00000 0 -21787455.744 -8576622.308 -10166055.825 10 0 61024 35100.00000 0 -22800067.237 -8980638.415 -7175913.259 10 0 61024 36000.00000 0 -23505393.310 -9136226.204 -4046779.449 10 0 61024 36900.00000 0 -23863183.774 -9084216.072 -839321.836 10 0 61024 37800.00000 0 -23844286.997 -8873119.896 2384375.524 10 0 61024 38700.00000 0 -23431925.764 -8556847.298 5562002.838 10 0 61024 39600.00000 0 -22622474.877 -8192210.053 8632213.082 10 0 61024 40500.00000 0 -21425709.946 -7836319.480 11535786.440 10 0 61024 41400.00000 0 -19864518.467 -7543985.309 14216749.990 10 0 61024 42300.00000 0 -17974085.934 -7365223.807 16623432.941 10 0 61024 43200.00000 0 -15800590.925 -7342978.012 18709439.372 10 0 61024 44100.00000 0 -13399462.498 -7511143.899 20434521.971 10 0 61024 45000.00000 0 -10833270.608 -7892983.756 21765341.982 10 0 61024 45900.00000 0 -8169334.662 -8499992.319 22676102.500 10 0 61024 46800.00000 0 -5477146.385 -9331263.118 23149044.126 10 0 61024 47700.00000 0 -2825710.752 -10373382.421 23174794.018 10 0 61024 48600.00000 0 -280912.142 -11600857.059 22752561.485 10 0 61024 49500.00000 0 2096987.785 -12977060.965 21890175.434 10 0 61024 50400.00000 0 4255618.662 -14455664.108 20603961.294 10 0 61024 51300.00000 0 6152443.425 -15982487.629 18918457.536 10 0 61024 52200.00000 0 7756293.308 -17497711.044 16865974.561 10 0 61024 53100.00000 0 9048431.222 -18938342.028 14486001.544 10 0 61024 54000.00000 0 10023097.833 -20240847.460 11824469.881 10 0 61024 54900.00000 0 10687515.676 -21343836.390 8932884.869 10 0 61024 55800.00000 0 11061349.136 -22190682.134 5867340.495 10 0 61024 56700.00000 0 11175641.142 -22731971.891 2687435.141 10 0 61024 57600.00000 0 11071270.048 -22927678.438 -544891.155 10 0 61024 58500.00000 0 10796991.122 -22748959.242 -3766574.799 10 0 61024 59400.00000 0 10407145.747 -22179503.613 -6914677.058 10 0 61024 60300.00000 0 9959136.437 -21216367.524 -9927636.510 10 0 61024 61200.00000 0 9510776.696 -19870257.696 -12746498.545 10 0 61024 62100.00000 0 9117630.730 -18165250.471 -15316095.174 10 0 61024 63000.00000 0 8830458.835 -16137955.743 -17586149.398 10 0 61024 63900.00000 0 8692879.876 -13836160.569 -19512280.038 10 0 61024 64800.00000 0 8739352.678 -11317009.890 -21056885.381 10 0 61024 65700.00000 0 8993564.047 -8644801.939 -22189886.992 10 0 61024 66600.00000 0 9467293.109 -5888492.549 -22889318.428 10 0 61024 67500.00000 0 10159800.502 -3119014.821 -23141747.356 10 0 61024 68400.00000 0 11057767.929 -406528.061 -22942523.511 10 0 61024 69300.00000 0 12135789.492 2182287.645 -22295848.865 10 0 61024 70200.00000 0 13357392.367 4586777.667 -21214670.314 10 0 61024 71100.00000 0 14676541.709 6754593.845 -19720398.946 10 0 61024 72000.00000 0 16039564.228 8643616.360 -17842463.467 10 0 61024 72900.00000 0 17387407.370 10223438.460 -15617708.646 10 0 61024 73800.00000 0 18658137.470 11476355.116 -13089652.488 10 0 61024 74700.00000 0 19789570.626 12397817.946 -10307618.426 10 0 61024 75600.00000 0 20721925.358 12996341.423 -7325760.917 10 0 61024 76500.00000 0 21400385.844 13292868.360 -4202004.445 10 0 61024 77400.00000 0 21777469.042 13319624.986 -996917.291 10 0 61024 78300.00000 0 21815097.893 13118516.879 2227457.959 10 0 61024 79200.00000 0 21486295.557 12739135.469 5408794.837 10 0 61024 80100.00000 0 20776431.643 12236460.201 8485672.055 10 0 61024 81000.00000 0 19683970.341 11668353.451 11398739.620 10 0 61024 81900.00000 0 18220690.575 11092952.783 14091841.116 10 0 61024 82800.00000 0 16411369.868 10566068.859 16513072.492 10 0 61024 83700.00000 0 14292945.417 10138696.464 18615759.193 10 0 61024 84600.00000 0 11913186.514 9854741.039 20359335.069 10 0 61024 85500.00000 0 9328931.992 9749054.099 21710108.151 10 0 61025 0.00000 0 6603963.797 9845858.353 22641900.299 10 0 61025 900.00000 0 3806600.413 10157627.704 23136550.055 10 0 61025 1800.00000 0 1007110.335 10684468.922 23184268.498 10 0 61025 2700.00000 0 -1724955.401 11414032.031 22783842.813 10 0 61025 3600.00000 0 -4323400.592 12321955.014 21942681.430 10 0 61025 4500.00000 0 -6727885.673 13372826.950 20676698.831 10 0 61025 5400.00000 0 -8886191.662 14521632.437 19010039.921 10 0 61025 6300.00000 0 -10756152.979 15715620.165 16974646.586 10 0 61025 7200.00000 0 -12307178.529 16896520.367 14609671.905 10 0 61025 8100.00000 0 -13521296.622 18003020.631 11960750.466 10 0 61025 9000.00000 0 -14393678.408 18973397.626 9079136.283 10 0 61025 9900.00000 0 -14932615.863 19748194.525 6020722.992 10 0 61025 10800.00000 0 -15158953.175 20272830.621 2844964.014 10 0 61025 11700.00000 0 -15104993.687 20500031.299 -386286.860 10 0 61025 12600.00000 0 -14812927.308 20391972.994 -3609991.436 10 0 61025 13500.00000 0 -14332844.452 19922049.180 -6763174.707 10 0 61025 14400.00000 0 -13720421.055 19076179.110 -9784177.796 10 0 61025 15300.00000 0 -13034374.158 17853600.503 -12613889.284 10 0 61025 16200.00000 0 -12333798.072 16267109.646 -15196928.150 10 0 61025 17100.00000 0 -11675496.717 14342736.532 -17482752.491 10 0 61025 18000.00000 0 -11111428.158 12118867.367 -19426669.831 10 0 61025 18900.00000 0 -10686372.345 9644851.057 -20990727.233 10 0 61025 19800.00000 0 -10435923.172 6979148.740 -22144462.399 10 0 61025 20700.00000 0 -10384891.461 4187105.344 -22865500.310 10 0 61025 21600.00000 0 -10546187.157 1338438.175 -23139983.724 10 0 61025 22500.00000 0 -10920227.815 -1495450.599 -22962829.762 10 0 61025 23400.00000 0 -11494897.326 -4244223.649 -22337808.764 10 0 61025 24300.00000 0 -12246054.860 -6841304.573 -21277445.551 10 0 61025 25200.00000 0 -13138570.307 -9226407.616 -19802746.966 10 0 61025 26100.00000 0 -14127840.046 -11347796.082 -17942763.132 10 0 61025 27000.00000 0 -15161716.681 -13164176.862 -15733993.128 10 0 61025 27900.00000 0 -16182769.265 -14646154.505 -13219648.667 10 0 61025 28800.00000 0 -17130777.107 -15777187.286 -10448791.948 10 0 61025 29700.00000 0 -17945351.133 -16554009.110 -7475365.977 10 0 61025 30600.00000 0 -18568572.161 -16986503.517 -4357137.288 10 0 61025 31500.00000 0 -18947535.513 -17097038.928 -1154572.356 10 0 61025 32400.00000 0 -19036696.048 -16919296.450 2070330.341 10 0 61025 33300.00000 0 -18799916.620 -16496642.166 5255230.234 10 0 61025 34200.00000 0 -18212135.872 -15880114.175 8338634.344 10 0 61025 35100.00000 0 -17260587.272 -15126109.800 11261064.985 10 0 61025 36000.00000 0 -15945519.898 -14293869.925 13966184.614 10 0 61025 36900.00000 0 -14280392.071 -13442865.193 16401858.159 10 0 61025 37800.00000 0 -12291529.981 -12630191.948 18521134.461 10 0 61025 38700.00000 0 -10017265.175 -11908085.104 20283130.251 10 0 61025 39600.00000 0 -7506585.635 -11321649.991 21653801.739 10 0 61025 40500.00000 0 -4817354.179 -10906906.076 22606590.699 10 0 61025 41400.00000 0 -2014165.274 -10689222.962 23122933.917 10 0 61025 42300.00000 0 834074.130 -10682213.365 23192626.858 10 0 61025 43200.00000 0 3656743.060 -10887129.531 22814034.481 10 0 61025 44100.00000 0 6384179.977 -11292789.444 21994144.294 10 0 61025 45000.00000 0 8950323.335 -11876037.890 20748459.073 10 0 61025 45900.00000 0 11295211.930 -12602725.683 19100729.093 10 0 61025 46800.00000 0 13367242.569 -13429169.056 17082526.356 10 0 61025 47700.00000 0 15125091.391 -14304030.996 14732666.154 10 0 61025 48600.00000 0 16539218.201 -15170548.193 12096484.241 10 0 61025 49500.00000 0 17592889.528 -15969011.916 9224980.972 10 0 61025 50400.00000 0 18282675.561 -16639399.346 6173846.936 10 0 61025 51300.00000 0 18618397.904 -17124044.280 3002387.599 10 0 61025 52200.00000 0 18622528.187 -17370233.199 -227632.684 10 0 61025 53100.00000 0 18329061.174 -17332614.681 -3453204.417 10 0 61025 54000.00000 0 17781908.948 -16975317.155 -6611319.598 10 0 61025 54900.00000 0 17032883.918 -16273681.832 -9640225.068 10 0 61025 55800.00000 0 16139356.804 -15215533.813 -12480655.565 10 0 61025 56700.00000 0 15161690.412 -13801934.196 -15077019.736 10 0 61025 57600.00000 0 14160560.223 -12047378.577 -17378513.161 10 0 61025 58500.00000 0 13194277.915 -9979431.559 -19340134.093 10 0 61025 59400.00000 0 12316233.911 -7637811.627 -20923580.005 10 0 61025 60300.00000 0 11572569.545 -5072964.766 -22098005.942 10 0 61025 61200.00000 0 11000179.157 -2344187.482 -22840629.061 10 0 61025 62100.00000 0 10625127.530 482620.743 -23137167.496 10 0 61025 63000.00000 0 10461549.583 3337479.849 -22982105.581 10 0 61025 63900.00000 0 10511077.879 6149019.301 -22378781.419 10 0 61025 64800.00000 0 10762820.392 8847222.221 -21339296.747 10 0 61025 65700.00000 0 11193887.083 11366108.341 -19884252.792 10 0 61025 66600.00000 0 11770440.298 13646243.809 -18042319.401 10 0 61025 67500.00000 0 12449221.833 15636974.147 -15849647.965 10 0 61025 68400.00000 0 13179489.534 17298289.030 -13349141.622 10 0 61025 69300.00000 0 13905279.505 18602243.663 -10589598.806 10 0 61025 70200.00000 0 14567896.853 19533880.686 -7624748.305 10 0 61025 71100.00000 0 15108529.067 20091617.748 -4512195.746 10 0 61025 72000.00000 0 15470871.740 20287088.294 -1312302.727 10 0 61025 72900.00000 0 15603656.652 20144445.785 1912979.480 10 0 61025 73800.00000 0 15462976.951 19699163.558 5101299.265 10 0 61025 74700.00000 0 15014313.355 18996382.988 8191094.863 10 0 61025 75600.00000 0 14234178.000 18088880.577 11122763.581 10 0 61025 76500.00000 0 13111308.689 17034739.630 13839789.209 10 0 61025 77400.00000 0 11647364.776 15894823.525 16289807.778 10 0 61025 78300.00000 0 9857096.248 14730155.085 18425593.346 10 0 61025 79200.00000 0 7767978.929 13599309.863 20205947.082 10 0 61025 80100.00000 0 5419329.937 12555930.095 21596474.619 10 0 61025 81000.00000 0 2860938.372 11646460.980 22570238.507 10 0 61025 81900.00000 0 151265.420 10908201.902 23108274.546 10 0 61025 82800.00000 0 -2644714.729 10367752.575 23199962.725 10 0 61025 83700.00000 0 -5457947.208 10039918.419 22843245.609 10 0 61025 84600.00000 0 -8217904.849 9927121.176 22044689.187 10 0 61025 85500.00000 0 -10855267.752 10019340.581 20819383.464 99